This is the latest recevied weather packets stored in our database for station/object KM6YFK-13. If no packets are shown the sender has not sent any weather packets the latest 10 day(s).
| Time | Temp. | Humidity | Pressure | Rain* | Wind** | Luminosity | Snow |
|---|---|---|---|---|---|---|---|
| 1777857208 | 21.67° C | 63% | 1017.3 hPa | 0 mm | - | 0 W/m² | - |
| 1777856908 | 21.67° C | 63% | 1017.3 hPa | 0 mm | - | 0 W/m² | - |
| 1777856608 | 21.67° C | 63% | 1017.3 hPa | 0 mm | - | 0 W/m² | - |
| 1777856043 | 21.67° C | 62% | 1017.2 hPa | 0 mm | - | 0 W/m² | - |
| 1777855708 | 21.67° C | 62% | 1017.2 hPa | 0 mm | - | 0 W/m² | - |
| 1777855407 | 21.67° C | 64% | 1017.3 hPa | 0 mm | - | 0 W/m² | - |
| 1777855107 | 21.67° C | 62% | 1017.2 hPa | 0 mm | - | 0 W/m² | - |
| 1777854808 | 21.11° C | 64% | 1017.3 hPa | 0 mm | - | 0 W/m² | - |
| 1777854507 | 21.11° C | 66% | 1017.2 hPa | 0 mm | - | 0 W/m² | - |
| 1777854208 | 21.11° C | 71% | 1017.3 hPa | 0 mm | - | 0 W/m² | - |
| 1777853907 | 21.11° C | 70% | 1017.2 hPa | 0 mm | - | 0 W/m² | - |
| 1777853608 | 21.11° C | 68% | 1017 hPa | 0 mm | - | 1 W/m² | - |
| 1777853308 | 21.11° C | 69% | 1016.9 hPa | 0 mm | - | 2 W/m² | - |
| 1777853008 | 21.11° C | 68% | 1016.9 hPa | 0 mm | - | 3 W/m² | - |
| 1777852708 | 21.11° C | 68% | 1016.9 hPa | 0 mm | - | 5 W/m² | - |
| 1777852407 | 21.11° C | 67% | 1016.8 hPa | 0 mm | - | 9 W/m² | - |
| 1777852108 | 21.11° C | 66% | 1016.9 hPa | 0 mm | - | 12 W/m² | - |
| 1777851808 | 21.11° C | 66% | 1016.9 hPa | 0 mm | - | 15 W/m² | - |
| 1777851512 | 21.67° C | 64% | 1016.8 hPa | 0 mm | - | 19 W/m² | - |
| 1777851207 | 21.67° C | 64% | 1016.8 hPa | 0 mm | - | 23 W/m² | - |
| 1777850908 | 21.67° C | 62% | 1016.8 hPa | 0 mm | - | 26 W/m² | - |
| 1777850608 | 21.67° C | 62% | 1016.8 hPa | 0 mm | - | 33 W/m² | - |
| 1777850308 | 22.22° C | 60% | 1016.9 hPa | 0 mm | - | 38 W/m² | - |
| 1777850007 | 22.22° C | 60% | 1016.9 hPa | 0 mm | - | 41 W/m² | - |
| 1777849709 | 22.78° C | 58% | 1016.8 hPa | 0 mm | - | 45 W/m² | - |
* Rain latest hour (hover to see other rain measurements)
** Current wind speed in m/s (hover to see current wind gust speed)